CAPE
2755 2621 2596 2586 2601 2561 2977 3110 2899 2896 3070 2858 2837 2865 3051 3181 3316 3402 3534 3660 3618 3583 3832 3857 3904 3842 3616 3604 3894 3966 4028 3808 3924 3869 3981 3689 3379 3180 2822 3099 3298 3437
2678 2659 2719 2547 2815 2898 3022 2990 3148 3093 3326 3395 3069 3259 3358 3402 3445 3373 3742 3834 3802 3654 3812 3658 3803 3846 3762 3373 3786 3775 4122 4127 3829 3536 3911 3880 3535 3285 2942 3120 3070 3590
2538 2647 2612 2514 2377 2453 2123 2472 2943 3038 2984 2988 3268 3584 3481 3417 3346 3675 3754 3710 3697 3539 3783 3797 3795 3896 3757 3769 4139 3899 3710 4199 3745 3463 4098 3874 3509 3376 3337 2813 2891 3252
2739 2468 2270 2192 2238 2480 2393 2523 2750 2913 2778 3161 3091 2852 3074 2932 3296 3511 3839 3919 3804 3609 3600 3641 3647 3430 3634 3742 4097 3921 3815 4199 3684 4122 4074 3962 3920 3365 3294 3357 3201 3158
2381 2493 2361 2302 2371 2606 2821 2548 2349 2603 2678 2814 2814 3192 3468 3678 3601 3248 3541 3674 3914 3633 3661 3671 3718 3544 3722 3768 3985 3817 3705 3592 3792 4380 4169 4076 4177 3981 3387 3433 3612 3472
2614 2742 2778 2590 2778 2846 2623 2678 2826 2771 2804 2832 3006 2912 3046 3420 3366 3197 3266 3068 3122 3072 2965 3055 3250 3256 3250 3570 3991 3861 3538 3210 3374 4187 4084 3983 3708 3779 3322 3431 3684 3673
2189 2563 2446 2472 2515 2690 2696 2864 2879 2921 2730 2684 3105 3071 3087 3123 3328 3370 3459 3318 2973 3084 2879 3108 3503 3342 3430 3786 4026 4117 4179 4058 3825 4224 3943 3714 4010 3982 3955 3941 4097 3944
1840 2099 2302 2455 2226 2537 2353 2662 2742 2920 3042 3175 2919 3087 3203 2964 3217 3173 3372 3404 3169 3297 3457 3296 3735 4039 3360 3362 3662 3826 3881 3559 3903 4258 4150 3973 3886 4045 3983 3817 3774 3822
1798 1931 2065 2105 1782 1928 1686 1720 2220 2495 3006 3012 2676 2728 3157 3106 3247 3081 3622 3692 3427 3525 3825 3712 4017 3819 3730 3796 3768 3953 3924 3512 3316 3774 3844 3794 3816 4037 3796 3764 3838 3861
1862 1758 1499 1544 1486 1635 1565 1528 1515 2026 2606 2630 2581 2584 2863 3325 3297 3250 3756 4078 3798 3890 4047 3923 4000 3936 3826 3846 4028 3959 3945 4091 3998 3976 3748 3759 3765 3732 3526 3672 3536 3600
1749 1697 1704 1680 1523 1537 1606 1537 1565 1547 2003 2087 2123 2216 2454 2754 3447 3539 3757 3987 3495 3693 3938 4092 3959 3999 4132 3864 3820 3850 3961 3782 3763 4003 3904 3987 3904 3963 3929 3923 3900 3717
2024 1915 1874 1914 1896 1834 1807 1766 1762 1694 1780 1962 1896 2054 2404 2282 2528 2834 2984 3488 3462 3412 3548 3908 4044 4069 4198 4113 3757 3798 3918 3864 3750 3922 3722 3780 3772 3632 3866 3925 3768 3836
2480 2249 2217 2119 2296 2153 2145 2129 2011 1862 1707 1651 1906 1941 2037 1976 1998 2303 2672 2708 3008 3068 3031 3481 4012 3847 4215 4251 4088 4025 3990 4160 3756 3800 3852 3683 3522 3335 3080 3264 3390 3497
2547 2497 2639 2574 2388 2384 2267 2200 2183 2139 2201 2096 2084 2061 1881 1839 1782 1787 2082 2255 2435 2562 2916 3136 3613 3713 4050 4161 4085 3838 3845 3935 3992 3789 3593 3548 3565 3606 3444 3025 3116 3190
2249 2061 1996 1864 2332 2346 2088 2082 2062 2141 2228 2303 2294 2174 1853 1816 1848 1682 1811 2029 2135 2451 2622 2701 2676 3002 3252 3536 3829 3952 3654 3412 3546 3694 3653 3580 3715 3335 3233 3635 3395 2938
1620 1513 1552 1687 1912 2021 2150 2082 1836 1980 1881 1857 1861 1922 1965 2070 2127 2119 2006 1949 2038 2246 2452 2388 2534 2646 2898 2529 2608 3013 3367 3064 3124 3593 3679 3530 3647 3730 3279 3157 3170 2920
1453 1514 1566 1590 1887 1878 1975 2012 1979 1791 1839 2013 1885 1776 1807 2125 1638 1630 1551 1599 1605 1626 1739 1784 1903 1978 2056 1812 1665 1604 2171 2741 3227 3424 3700 3836 3532 3622 3670 3111 2839 2966
1427 1466 1483 1499 1478 1482 1684 1804 1747 1864 1973 1978 1798 1826 1993 1750 1720 1669 1951 1520 1300 1187 1165 1295 1446 1444 1202 1151 1156 1241 1293 2018 2258 2582 2674 2884 3051 2925 2927 2876 2766 2614
1146 1246 1505 1314 1380 1411 1446 1386 1475 1607 1701 1813 1916 1934 1676 1731 2222 1871 2042 1860 1730 1830 1452 1286 1323 785 766 742 746 708 762 987 1634 1976 2159 2284 2327 2610 2745 2773 2980 3040
908 885 861 867 978 1064 1280 1568 1494 1326 1619 1610 1754 1579 1601 1977 1962 2300 2340 2482 2329 2373 2248 1884 2004 1130 878 755 751 760 764 742 1168 1558 1800 2015 2237 2362 2270 2391 2762 3060
702 721 737 731 734 758 824 881 945 1054 1169 1255 1317 1337 1269 1508 1385 1662 1669 1781 1901 1938 2221 1886 1539 1136 1131 1064 939 884 782 685 728 1142 1336 1643 1904 2156 2506 2587 2734 2717
793 802 770 750 753 816 868 891 876 860 857 905 976 994 1053 1082 1156 1362 1371 1247 1384 1358 1505 1800 1459 1124 1137 1184 1136 1108 983 859 1234 1526 1591 1650 1746 1970 2132 2433 2564 2445
612 554 749 605 724 801 808 816 842 833 810 814 835 921 961 1047 1057 1262 1252 1190 1245 1179 1216 1246 1184 1102 1092 1123 1164 1202 1166 1553 1496 1490 1670 1712 1817 1921 1988 1916 1959 2010
525 583 513 566 626 629 640 696 740 702 770 728 744 812 852 876 886 894 919 939 972 979 963 984 967 1000 992 964 1003 1134 1236 1319 1673 1672 1714 1777 1844 1844 1784 1847 1791 1450
277 284 280 283 247 230 228 267 370 485 589 626 555 484 534 676 773 830 803 814 826 843 812 808 826 872 941 971 999 1057 1127 1173 1222 1468 1530 1615 1545 1661 1609 1571 1537 1364
167 205 89 136 186 198 204 300 328 267 239 242 236 217 128 198 394 437 482 560 639 692 722 699 634 683 704 764 824 881 963 1032 1099 1114 1193 1180 1183 1203 1467 1539 1194 1186
Wind_Speed
4 5 5 6 7 7 7 7 8 8 9 11 12 12 12 12 11 10 8 8 7 6 6 5 5 4 5 5 4 4 4 4 5 4 3 4 5 6 7 7 8 8
5 5 6 7 8 8 8 8 7 8 8 9 11 11 11 10 9 9 8 8 7 6 6 5 4 4 4 4 4 3 3 3 3 3 3 4 6 7 7 7 7 7
7 7 6 6 6 5 5 7 7 8 8 8 9 10 9 9 8 7 7 7 7 6 5 5 4 3 3 3 3 2 2 2 3 3 4 5 6 7 8 8 6 6
9 8 8 7 7 7 7 8 7 8 9 9 8 8 9 9 8 6 6 6 6 5 5 4 3 3 2 2 2 2 1 2 3 3 4 5 5 6 7 7 7 7
8 9 9 9 10 9 9 9 8 8 7 8 9 9 9 9 8 7 7 6 6 5 4 4 3 3 3 2 2 2 2 2 1 2 2 3 4 3 4 5 6 7
11 12 11 10 11 11 10 10 10 10 9 9 9 10 8 8 7 7 7 6 6 5 5 5 4 4 3 3 4 4 4 3 3 3 2 2 3 3 3 3 4 6
11 12 11 11 11 12 11 12 12 12 12 12 12 10 10 9 8 8 8 7 7 7 6 7 6 6 6 6 5 4 4 4 4 4 3 3 3 3 2 2 2 4
11 12 12 12 11 13 12 13 14 13 13 13 12 11 10 9 9 9 9 9 9 9 9 8 9 8 6 7 6 6 5 6 6 6 5 4 5 4 4 5 4 3
12 12 13 12 11 12 11 12 13 13 15 14 13 12 12 11 10 10 11 11 11 11 12 11 11 10 9 9 8 8 7 6 7 7 6 6 5 5 5 6 6 5
14 14 13 13 13 14 13 13 14 15 16 15 14 14 13 12 11 11 12 12 12 12 12 12 11 11 10 9 8 8 8 7 7 7 7 6 6 6 6 7 6 5
16 16 16 16 16 18 16 15 15 15 17 16 16 16 15 14 13 12 12 12 11 11 11 11 10 9 9 8 8 9 8 8 8 8 8 7 6 6 6 6 5 4
19 19 19 19 19 20 19 18 18 17 17 18 17 17 17 15 14 13 12 11 10 10 10 10 9 9 8 7 7 8 9 9 9 9 9 8 8 7 7 7 7 5
22 22 23 23 23 22 22 21 20 19 18 18 18 18 17 16 15 14 14 12 10 10 10 10 9 9 10 9 8 8 9 9 9 9 10 10 9 8 8 8 8 7
24 24 25 25 24 24 23 22 22 21 21 20 19 18 17 16 16 15 15 13 12 12 12 11 11 11 11 11 11 10 9 9 9 9 9 10 10 10 10 10 10 9
28 26 24 23 24 24 23 24 23 23 22 21 20 19 18 18 17 16 16 15 15 14 13 13 12 12 14 14 13 11 10 8 8 8 8 9 9 9 10 11 11 11
30 28 25 23 23 24 25 25 25 24 24 23 22 21 21 21 20 19 18 18 17 17 16 15 15 15 16 14 14 14 12 11 10 9 8 8 9 9 9 10 10 11
30 28 26 25 26 26 25 25 25 25 25 25 24 23 23 24 22 21 20 20 20 20 19 18 18 18 19 17 16 14 13 12 11 10 9 9 8 9 9 9 10 11
31 30 29 29 28 27 26 25 24 24 24 24 24 24 25 24 24 25 25 24 23 23 22 21 21 24 24 20 18 17 17 14 13 12 10 10 10 9 10 10 10 12
35 35 35 34 32 30 29 27 25 26 25 26 26 26 26 25 25 25 26 25 26 26 25 25 25 34 31 26 21 19 19 17 15 13 12 11 11 11 11 12 12 12
38 39 39 38 38 38 37 34 32 32 33 32 31 29 28 27 26 26 28 27 27 27 28 30 30 38 33 32 28 24 22 21 18 16 15 13 12 12 13 13 14 14
43 41 40 39 39 41 41 41 40 38 38 38 37 36 34 31 29 28 29 27 27 27 29 31 37 39 37 35 33 29 27 24 22 21 19 17 16 15 15 15 16 16
43 42 42 41 41 43 44 44 42 41 41 41 40 39 36 33 34 33 33 32 31 30 30 32 41 41 39 38 35 35 30 27 27 25 23 22 20 19 19 20 20 19
45 45 45 43 43 45 45 45 43 43 43 43 42 38 36 37 39 39 38 36 36 35 35 34 41 41 42 41 39 35 30 31 30 28 27 26 25 25 24 23 23 23
37 41 42 42 44 48 49 48 45 42 43 44 43 40 41 41 41 41 42 42 42 42 41 42 42 44 46 45 42 39 33 33 33 32 30 29 28 28 27 27 27 25
25 29 31 32 34 35 38 42 42 42 41 39 35 32 33 38 41 42 42 42 43 44 46 44 44 45 47 46 45 44 39 36 36 33 31 30 31 30 30 30 30 30
23 23 nan 25 26 27 28 29 29 32 34 31 27 23 25 30 35 36 38 40 42 44 45 45 46 44 45 46 46 47 44 40 41 39 37 35 32 31 29 29 30 30
Wind_Direction
180 194 182 174 173 176 183 184 187 192 198 205 210 215 216 219 219 218 215 215 214 212 216 216 224 226 229 238 237 231 223 200 189 198 181 173 166 166 172 181 177 179
192 194 198 193 193 192 190 186 191 192 201 204 205 213 219 224 227 223 220 214 214 213 216 222 231 234 238 246 253 239 230 211 175 202 181 163 164 163 161 167 176 185
204 201 201 200 197 199 192 196 194 195 200 203 208 209 217 224 229 231 221 215 211 212 222 221 226 228 229 238 245 240 229 204 172 172 176 163 167 164 159 166 176 183
210 206 198 191 195 209 215 215 212 206 205 213 211 214 215 222 227 232 228 227 218 214 213 215 206 209 217 219 241 222 208 179 173 182 168 168 167 159 157 165 170 173
215 213 203 199 198 204 213 216 219 221 216 216 219 224 226 227 229 230 230 231 230 223 225 208 204 194 193 189 202 195 206 172 202 208 186 168 167 167 156 164 165 165
215 218 215 209 210 209 208 212 216 219 219 226 227 231 231 237 234 236 239 236 236 234 228 224 222 221 218 220 215 202 200 201 233 239 212 191 183 202 188 179 161 163
220 221 223 220 219 220 212 212 213 213 217 217 229 229 235 240 241 244 249 249 242 243 241 241 239 235 240 242 243 240 239 234 243 254 241 234 247 237 241 236 199 168
227 227 227 227 230 230 221 219 216 215 216 223 226 231 235 238 240 241 248 254 255 255 253 252 252 252 249 253 257 258 256 261 268 272 264 248 245 247 255 258 245 216
236 234 230 230 230 230 227 226 227 221 222 221 221 229 237 234 238 238 244 249 250 253 256 256 260 258 257 257 256 259 257 255 258 267 266 258 257 256 252 255 255 242
235 232 232 229 227 226 225 225 227 230 230 224 221 223 232 237 237 238 242 245 244 248 251 252 258 259 261 264 267 265 261 261 261 262 261 262 261 255 252 258 253 238
233 233 231 227 223 222 222 223 225 227 232 230 224 222 223 230 239 242 244 244 238 240 242 246 248 253 259 260 265 268 270 265 262 262 259 258 255 256 258 258 257 250
227 227 229 228 226 223 224 224 224 226 230 234 230 227 225 223 227 235 241 241 235 231 234 237 240 246 253 255 258 265 269 268 267 265 260 255 249 249 256 263 260 257
231 228 228 230 230 227 225 226 227 228 230 232 235 233 231 225 225 228 235 232 227 223 222 229 238 244 251 253 250 254 260 266 264 266 265 258 252 246 244 250 254 256
235 233 232 233 233 236 235 233 230 229 231 233 236 239 237 235 229 230 234 236 232 226 224 225 230 236 247 250 248 244 247 254 260 259 256 255 251 250 246 243 244 245
238 237 236 236 236 237 239 240 238 237 236 234 236 237 239 241 240 237 236 237 240 241 235 233 232 238 246 252 254 254 249 243 249 254 255 252 252 247 247 249 247 246
239 238 238 238 238 238 238 240 242 242 241 241 239 238 240 242 242 242 241 242 245 249 250 247 247 248 258 269 266 259 258 251 250 252 252 253 255 252 248 249 248 247
236 238 238 239 239 239 240 240 242 242 245 245 243 241 240 243 244 246 245 245 247 249 253 254 253 254 263 273 280 280 267 261 258 256 258 263 266 265 257 250 246 248
234 236 238 238 238 240 241 243 243 245 247 249 248 248 245 242 244 246 246 247 249 250 252 253 252 253 258 264 273 280 282 274 268 262 261 263 266 267 266 260 253 249
234 235 236 236 238 242 244 245 245 246 247 248 249 248 248 248 247 247 249 249 250 252 252 252 251 254 251 253 259 269 278 279 271 271 266 263 260 264 265 266 265 261
232 234 234 234 236 238 239 239 242 242 241 243 246 249 248 247 247 247 246 246 246 249 250 249 250 250 248 251 249 256 266 273 269 269 270 267 264 264 263 264 267 267
231 231 231 230 233 236 236 237 239 240 242 243 243 244 245 244 243 245 244 243 244 246 249 251 249 241 245 249 250 248 254 267 262 263 263 265 267 268 268 267 268 269
232 233 234 234 235 235 236 237 238 240 242 243 244 243 245 248 249 246 245 244 243 243 247 251 249 242 243 244 247 250 256 257 259 260 259 260 261 262 262 263 265 267
233 234 236 234 234 236 235 234 235 237 238 241 244 244 245 246 246 245 244 244 245 244 247 249 250 243 241 242 243 243 251 256 254 254 254 254 255 256 258 260 261 262
228 231 233 233 233 235 235 236 238 240 242 242 240 240 240 242 245 246 243 244 246 247 247 252 252 247 244 243 241 240 246 251 253 253 252 251 251 252 253 256 258 256
216 220 225 229 231 230 230 233 234 234 238 238 236 235 241 242 244 245 245 244 245 247 248 251 253 250 246 245 244 242 244 249 250 250 249 249 248 249 251 252 255 258
223 223 nan 226 230 231 230 230 228 230 234 238 238 238 241 240 240 241 243 243 243 245 247 248 251 250 244 242 241 241 241 249 252 250 248 246 246 247 248 250 251 254